This is the latest recevied weather packets stored in our database for station/object DC1MBB-9. If no packets are shown the sender has not sent any weather packets the latest 1 day(s).
| Time | Temp. | Humidity | Pressure | Rain* | Wind** | Luminosity | Snow |
|---|---|---|---|---|---|---|---|
| 1777992518 | 22.22° C | 35% | 949 hPa | - | 0 m/s | - | - |
| 1777992157 | 23.33° C | 30% | 949 hPa | - | 0 m/s | - | - |
| 1777991796 | 23.33° C | 32% | 949 hPa | - | 0 m/s | - | - |
| 1777991435 | 23.89° C | 31% | 949 hPa | - | 0 m/s | - | - |
| 1777991075 | 24.44° C | 30% | 948 hPa | - | 0 m/s | - | - |
| 1777990714 | 25° C | 29% | 948 hPa | - | 0 m/s | - | - |
| 1777990353 | 25° C | 30% | 948 hPa | - | 0 m/s | - | - |
| 1777989992 | 25.56° C | 30% | 948 hPa | - | 0 m/s | - | - |
| 1777989631 | 25.56° C | 30% | 948 hPa | - | 0 m/s | - | - |
| 1777989271 | 25.56° C | 30% | 948 hPa | - | 0 m/s | - | - |
| 1777988910 | 25.56° C | 30% | 948 hPa | - | 0 m/s | - | - |
| 1777988549 | 25.56° C | 31% | 948 hPa | - | 0 m/s | - | - |
| 1777988188 | 26.11° C | 30% | 948 hPa | - | 0 m/s | - | - |
| 1777987832 | 26.11° C | 31% | 949 hPa | - | 0 m/s | - | - |
| 1777987467 | 26.11° C | 30% | 949 hPa | - | 0 m/s | - | - |
| 1777987106 | 26.67° C | 31% | 948 hPa | - | 0 m/s | - | - |
| 1777986745 | 26.67° C | 30% | 949 hPa | - | 0 m/s | - | - |
| 1777986384 | 26.67° C | 30% | 949 hPa | - | 0 m/s | - | - |
| 1777986023 | 26.67° C | 28% | 949 hPa | - | 0 m/s | - | - |
| 1777985663 | 26.67° C | 27% | 949 hPa | - | 0 m/s | - | - |
| 1777985302 | 26.67° C | 28% | 949 hPa | - | 0 m/s | - | - |
| 1777984941 | 26.67° C | 29% | 949 hPa | - | 0 m/s | - | - |
| 1777984587 | 26.11° C | 28% | 949 hPa | - | 0 m/s | - | - |
| 1777984219 | 26.11° C | 28% | 949 hPa | - | 0 m/s | - | - |
| 1777983859 | 26.67° C | 28% | 949 hPa | - | 0 m/s | - | - |
* Rain since midnight (hover to see other rain measurements)
** Current wind speed in m/s (hover to see current wind gust speed)